DateTimeUTC,F1_A11,F1_S11,BsB_S11,BsG_S11,BsR_S11,BbsB_S11,BbsG_S11,BbsR_S11,BaB_A11,BaG_A11,BaR_A11,Tu_S11,T_S11,Uu_S11,U_S11,P_S11,T1_A11
2021-07-25T07:00:00Z,00000200,20000000,,,,,,,0000.36,0000.33,0000.30,18.3,25.1,08.3,05.5,0669.1,31.0
2021-07-25T07:01:00Z,00000200,20000000,,,,,,,-000.29,-000.54,-000.02,18.3,25.1,08.3,05.5,0669.1,31.1
2021-07-25T07:02:00Z,00000200,20000000,,,,,,,0000.44,0000.44,-000.22,18.4,25.1,08.3,05.5,0669.1,31.1
2021-07-25T07:03:00Z,00000200,60000000,,,,,,,0000.09,-000.13,0000.28,18.4,25.0,08.3,05.5,0669.1,31.1
2021-07-25T07:04:00Z,00000200,40000000,0001.07,-000.17,-000.36,0000.59,0000.07,0000.06,-000.31,-000.13,-000.10,18.7,25.0,08.4,05.7,0670.0,31.1
2021-07-25T07:05:00Z,00000200,00000000,0000.57,-000.13,-000.14,-000.12,0000.16,-000.02,0000.01,-000.13,0000.17,18.7,25.0,08.3,05.7,0670.1,31.1
2021-07-25T07:06:00Z,00000200,00000000,0000.58,-000.09,-000.22,0000.13,0000.22,0000.33,-000.29,0000.42,-000.02,18.7,25.0,08.4,05.7,0670.2,31.1
2021-07-25T07:07:00Z,00000200,00000000,0001.42,-000.28,-000.04,0000.58,0000.07,0000.24,0000.33,-000.27,-000.14,18.7,25.0,08.4,05.7,0670.1,31.1
2021-07-25T07:08:00Z,00000200,00000000,0000.62,-000.04,-000.08,0000.11,0000.28,0000.27,-000.19,0000.15,0000.14,18.7,25.0,08.5,05.8,0670.1,31.0
2021-07-25T07:09:00Z,00000200,00000000,0000.78,-000.26,-000.13,0000.19,-000.32,0000.05,0000.08,-000.15,-000.24,18.6,24.9,08.5,05.8,0670.1,31.0
2021-07-25T07:10:00Z,00000200,00000000,0001.41,0000.15,-000.05,0000.02,0000.24,0000.03,0000.11,-000.07,-000.12,18.6,24.9,08.5,05.8,0670.1,31.1
2021-07-25T07:11:00Z,00000200,00000000,0000.71,-000.07,-000.06,-000.01,0000.17,-000.04,0000.05,-000.08,-000.07,18.6,24.9,08.4,05.7,0670.2,31.0
2021-07-25T07:12:00Z,00000200,00000000,-000.05,0000.17,-000.04,-000.29,0000.22,0000.04,-000.30,-000.16,0000.21,18.6,24.9,08.5,05.8,0670.2,31.0
2021-07-25T07:13:00Z,00000200,00000000,0000.52,0000.06,-000.13,-000.17,0000.38,0000.26,0000.62,0000.62,0000.39,18.6,24.9,08.6,05.9,0670.2,31.0
2021-07-25T07:14:00Z,00000200,00000000,0001.20,-000.10,0000.11,0000.12,-000.16,0000.01,0000.01,0000.06,0000.12,18.6,24.9,08.7,05.9,0670.2,31.0
2021-07-25T07:15:00Z,00000200,00000000,0000.56,-000.16,-000.17,-000.36,-000.02,0000.17,-000.12,0000.31,0000.11,18.6,24.9,08.6,05.9,0670.2,31.0
2021-07-25T07:16:00Z,00000200,00000000,0000.98,-000.04,0000.03,0000.50,-000.12,-000.04,0000.00,0000.02,-000.15,18.7,24.9,08.7,05.9,0670.2,31.1
2021-07-25T07:17:00Z,00000200,00000000,0000.62,0000.10,0000.23,0000.09,0000.04,0000.31,0000.06,-000.16,-000.02,18.7,25.0,08.6,05.9,0670.2,31.1
2021-07-25T07:18:00Z,00000200,00000000,0000.80,-000.05,0000.26,0000.20,-000.02,0000.15,-000.04,-000.06,-000.14,18.7,25.0,08.6,05.9,0670.2,31.1
2021-07-25T07:19:00Z,00000200,00000000,0000.84,-000.04,0000.26,0000.00,-000.16,0000.29,-000.26,-000.28,-000.25,18.7,25.0,08.5,05.8,0670.2,31.0
2021-07-25T07:20:00Z,00000200,00000000,0001.02,-000.23,-000.12,0000.39,0000.56,0000.02,-000.31,-000.11,0000.01,18.7,25.0,08.4,05.8,0670.2,31.1
2021-07-25T07:21:00Z,00000200,00000000,0000.03,0000.20,0000.08,-000.46,0000.32,0000.07,-000.14,-000.05,-000.02,18.7,25.0,08.5,05.8,0670.3,31.1
2021-07-25T07:22:00Z,00000200,00000000,0001.01,-000.04,-000.00,-000.08,-000.12,0000.02,0000.51,-000.15,-000.35,18.7,24.9,08.4,05.7,0670.3,31.0
2021-07-25T07:23:00Z,00000200,00000000,0000.27,-000.38,0000.04,-000.23,0000.07,0000.09,0000.03,-000.06,0000.36,18.7,24.9,08.4,05.7,0670.3,31.1
2021-07-25T07:24:00Z,00000200,00000000,0000.52,-000.13,0000.19,0000.00,0000.10,0000.09,-000.01,-000.05,-000.09,18.6,24.9,08.4,05.8,0670.3,31.0
2021-07-25T07:25:00Z,00000200,00000000,0000.53,-000.09,-000.27,-000.21,-000.08,0000.16,-000.36,-000.03,0000.09,18.6,24.9,08.4,05.7,0670.3,31.0
2021-07-25T07:26:00Z,00000200,00000000,0000.62,0000.10,-000.07,-000.01,0000.09,0000.15,0000.09,0000.35,-000.01,18.6,24.9,08.5,05.8,0670.3,31.0
2021-07-25T07:27:00Z,00000200,00000000,0000.89,-000.08,0000.06,-000.11,0000.02,-000.02,0000.12,0000.40,0000.24,18.6,24.9,08.6,05.9,0670.3,31.0
2021-07-25T07:28:00Z,00000200,00000000,0000.33,-000.09,0000.07,-000.05,-000.02,0000.35,-000.26,-000.50,-000.12,18.6,24.9,08.7,05.9,0670.3,31.0
2021-07-25T07:29:00Z,00000200,00000000,0000.79,-000.05,-000.24,-000.39,0000.06,-000.10,0000.74,0000.45,0000.31,18.6,24.9,08.7,05.9,0670.3,31.0
2021-07-25T07:30:00Z,00000200,00000000,0000.59,-000.09,0000.18,-000.33,0000.21,0000.07,-000.18,0000.25,0000.08,18.6,24.9,08.7,05.9,0670.4,31.0
2021-07-25T07:31:00Z,00000200,00000000,0000.79,-000.10,0000.14,-000.43,0000.33,0000.19,0000.40,0000.33,0000.15,18.7,24.9,08.8,06.0,0670.4,31.1
2021-07-25T07:32:00Z,00000200,00000000,0000.65,-000.32,-000.14,0000.22,0000.24,0000.09,0000.20,0000.01,0000.21,18.7,24.9,09.0,06.1,0670.4,31.1
2021-07-25T07:33:00Z,00000200,00000000,0000.45,-000.19,0000.07,-000.02,-000.04,0000.16,0000.00,-000.31,0000.19,18.8,25.0,09.1,06.2,0670.4,31.1
2021-07-25T07:34:00Z,00000200,00000000,0001.02,0000.16,-000.28,0000.19,-000.07,0000.09,-000.32,0000.29,-000.38,18.8,25.0,09.0,06.2,0670.4,31.1
2021-07-25T07:35:00Z,00000200,00000000,0000.90,0000.23,0000.36,0000.09,-000.03,-000.01,-000.02,-000.47,-000.01,18.8,25.0,08.8,06.0,0670.4,31.1
2021-07-25T07:36:00Z,00000200,00000000,0001.01,0000.08,0000.07,-000.55,0000.19,0000.25,-000.46,-000.14,-000.23,18.7,25.0,08.7,06.0,0670.4,31.1
2021-07-25T07:37:00Z,00000200,00000000,0000.08,0000.03,-000.18,-000.23,0000.17,0000.50,0000.30,-000.06,-000.09,18.7,24.9,08.6,05.9,0670.4,31.0
2021-07-25T07:38:00Z,00000200,00000000,0000.49,-000.10,0000.45,-000.40,0000.06,0000.30,-000.51,-000.32,-000.29,18.7,24.9,08.5,05.8,0670.4,31.0
2021-07-25T07:39:00Z,00000200,00000000,0002.06,0000.29,0000.02,0000.39,0000.15,0000.51,0000.07,-000.15,-000.21,18.7,24.9,08.3,05.7,0670.4,31.0
2021-07-25T07:40:00Z,00000200,00000000,0000.96,0000.07,0000.37,0000.11,-000.00,0000.03,-000.39,-000.09,-000.12,18.7,24.9,08.3,05.7,0670.5,31.1
2021-07-25T07:41:00Z,00000200,00000000,0001.15,-000.29,-000.15,0000.25,0000.18,0000.14,-000.13,-000.13,-000.14,18.7,24.9,08.2,05.6,0670.4,31.1
2021-07-25T07:42:00Z,00000200,00000000,0000.86,-000.17,0000.05,-000.43,-000.00,0000.26,-000.19,-000.13,0000.19,18.6,24.9,08.2,05.6,0670.5,31.0
2021-07-25T07:43:00Z,00000200,00000000,0001.04,-000.03,-000.09,-000.00,0000.49,0000.30,0000.06,0000.24,-000.22,18.6,24.9,08.1,05.6,0670.5,31.0
2021-07-25T07:44:00Z,00000200,00000000,0000.30,-000.09,0000.32,0000.33,0000.15,0000.37,0000.16,-000.34,0000.04,18.6,24.9,08.1,05.5,0670.5,31.0
2021-07-25T07:45:00Z,00000200,00000000,0000.56,0000.18,-000.13,0000.28,0000.14,0000.12,-000.28,-000.26,-000.15,18.6,24.9,08.1,05.5,0670.5,31.1
2021-07-25T07:46:00Z,00000200,00000000,0000.71,-000.19,0000.39,-000.49,-000.06,0000.21,-000.50,-000.27,-000.44,18.6,24.9,07.9,05.4,0670.5,31.0
2021-07-25T07:47:00Z,00000200,00000000,0000.45,0000.24,0000.04,-000.23,-000.01,0000.22,0000.09,-000.04,0000.19,18.6,24.9,07.9,05.4,0670.5,31.0
2021-07-25T07:48:00Z,00000200,00000000,0001.01,0000.21,0000.12,0000.03,0000.18,0000.18,-000.21,-000.03,-000.39,18.6,24.8,07.7,05.3,0670.5,31.0
2021-07-25T07:49:00Z,00000200,00000000,0000.29,-000.14,-000.29,-000.13,0000.17,0000.00,-000.19,-000.18,0000.05,18.6,24.8,07.7,05.2,0670.5,31.0
2021-07-25T07:50:00Z,00000200,00000000,0001.20,0000.13,0000.12,0000.50,-000.01,0000.04,-000.02,-000.05,-000.27,18.6,24.8,07.7,05.2,0670.5,31.0
2021-07-25T07:51:00Z,00000200,00000000,0000.21,0000.01,0000.06,0000.49,0000.49,0000.27,0000.01,-000.15,0000.24,18.5,24.8,07.5,05.1,0670.6,31.0
2021-07-25T07:52:00Z,00000200,00000000,0000.34,-000.08,-000.05,-000.25,-000.03,0000.17,-000.21,0000.04,-000.36,18.5,24.8,07.6,05.2,0670.6,31.0
2021-07-25T07:53:00Z,00000200,00000000,0000.78,-000.07,-000.01,-000.34,0000.18,0000.31,-000.15,-000.16,-000.03,18.5,24.8,07.4,05.1,0670.5,31.0
2021-07-25T07:54:00Z,00000200,00000000,0000.99,0000.23,-000.19,0000.44,-000.18,-000.10,-000.21,-000.06,-000.07,18.5,24.8,07.5,05.1,0670.6,31.0
2021-07-25T07:55:00Z,00000200,00000000,0000.30,-000.17,-000.12,0000.26,0000.16,-000.11,-000.03,-000.40,0000.05,18.5,24.8,07.5,05.1,0670.6,31.0
2021-07-25T07:56:00Z,00000200,00000000,0000.46,0000.17,0000.16,-000.27,-000.05,-000.10,0000.44,0000.33,0000.23,18.5,24.8,07.4,05.0,0670.6,31.0
2021-07-25T07:57:00Z,00000200,40000000,,,,,,,0000.28,0000.47,0000.15,18.5,24.8,07.4,05.0,0670.6,31.0
2021-07-25T07:58:00Z,00000200,60000000,,,,,,,-000.41,0000.01,-000.33,18.3,24.9,07.6,05.0,0669.6,31.0
2021-07-25T07:59:00Z,00000200,20000000,,,,,,,-000.16,-000.57,-000.46,18.2,25.0,07.5,04.9,0669.6,31.0
